This is the latest recevied weather packets stored in our database for station/object DL9GJ-4. If no packets are shown the sender has not sent any weather packets the latest 1 day(s).
| Time | Temp. | Humidity | Pressure | Rain* | Wind** | Luminosity | Snow |
|---|---|---|---|---|---|---|---|
| 1777986438 | 16.11° C | 33% | 1006 hPa | 0 mm | 0 m/s | - | - |
| 1777985717 | 15.56° C | 34% | 1006 hPa | 0 mm | 0 m/s | - | - |
| 1777984994 | 15.56° C | 34% | 1006 hPa | 0 mm | 1.34 m/s, 260° | - | - |
| 1777984626 | 15° C | 36% | 1006 hPa | 0 mm | 0 m/s | - | - |
| 1777984262 | 14.44° C | 36% | 1006 hPa | 0 mm | 0 m/s | - | - |
| 1777983177 | 15° C | 36% | 1006 hPa | 0 mm | 0 m/s | - | - |
| 1777982093 | 14.44° C | 37% | 1006 hPa | 0 mm | 0 m/s | - | - |
| 1777981001 | 13.89° C | 40% | 1007 hPa | 0 mm | 0 m/s | - | - |
| 1777980268 | 13.33° C | 40% | 1007 hPa | 0 mm | 1.34 m/s, 261° | - | - |
| 1777979541 | 13.33° C | 44% | 1007 hPa | 0 mm | 0.89 m/s, 261° | - | - |
| 1777979332 | 13.89° C | 43% | 1007 hPa | 0 mm | 1.34 m/s, 261° | - | - |
| 1777979181 | 13.89° C | 43% | 1007 hPa | 0 mm | 1.34 m/s, 261° | - | - |
| 1777978938 | 13.89° C | 43% | 1007 hPa | 0 mm | 0.89 m/s, 261° | - | - |
| 1777978818 | 13.89° C | 43% | 1007 hPa | 0 mm | 0.89 m/s, 261° | - | - |
| 1777978455 | 13.89° C | 42% | 1007 hPa | 0 mm | 0 m/s | - | - |
| 1777977734 | 13.89° C | 41% | 1007 hPa | 0 mm | 0 m/s | - | - |
| 1777977009 | 13.89° C | 38% | 1007 hPa | 0 mm | 1.34 m/s, 262° | - | - |
| 1777976283 | 14.44° C | 36% | 1007 hPa | 0 mm | 1.34 m/s, 179° | - | - |
| 1777975199 | 15° C | 34% | 1007 hPa | 0 mm | 1.34 m/s, 253° | - | - |
| 1777974838 | 15° C | 34% | 1007 hPa | 0 mm | 0 m/s | - | - |
| 1777974475 | 15° C | 33% | 1007 hPa | 0 mm | 0.89 m/s, 252° | - | - |
| 1777973753 | 15° C | 28% | 1007 hPa | 0 mm | 0.89 m/s, 253° | - | - |
| 1777973029 | 15° C | 27% | 1007 hPa | 0 mm | 0.89 m/s, 204° | - | - |
| 1777972667 | 15° C | 28% | 1007 hPa | 0 mm | 1.34 m/s, 204° | - | - |
| 1777970490 | 15° C | 37% | 1007 hPa | 0 mm | 0 m/s | - | - |
* Rain latest hour (hover to see other rain measurements)
** Current wind speed in m/s (hover to see current wind gust speed)